Location: Unspecified
(0.0000°N, 0.0000°E)
Time: 12:22:43
(UTC+00:00)

JUGNU - Pass Details

Date: 18 February 2020
Orbit: 836 x 864 km, 20.0° (Epoch: 01 April)

Event Time Altitude Azimuth Distance (km) Brightness Sun altitude
Exits shadow 04:11:20 - 195° (SSW) 2,580 ? -29.9°
Reaches altitude 10° 04:12:46 10° 181° (S) 2,485 ? -29.6°
Maximum altitude 04:13:16 10° 176° (S) 2,478 ? -29.5°
Drops below altitude 10° 04:13:46 10° 171° (S) 2,486 ? -29.4°
Sets 04:19:36 0° 128° (SE) 3,427 ? -27.9°
